Location: Copetón
(10.0045°N, 67.8273°W)
Time: 19:51:40
(UTC+00:00)

IGS 5A - Pass Details

Date: 18 April 2024
Orbit: 572 x 575 km, 97.4° (Epoch: 06 April)

Event Time Altitude Azimuth Distance (km) Brightness Sun altitude
Rises 23:23:00 0° 174° (S) 2,771 6.7 -10.7°
Reaches altitude 10° 23:25:09 10° 176° (S) 1,873 5.9 -11.2°
Maximum altitude 23:29:11 67° 259° (W) 619 3.8 -12.2°
Drops below altitude 10° 23:33:13 10° 342° (NNW) 1,870 6.5 -13.1°
Sets 23:35:22 0° 345° (NNW) 2,766 7.3 -13.6°
